SB KEPS @ AMSAT $ORB26105.1 2Line Orbital Elements 26105.AMSAT QST de W1STR AMSAT Orbital Elements for Amateur Satellites in TLE Format From Orbital Analysis Office New England Sci-Tech STEM Education Center Natick MA April 15, 2026 To all radio amateurs These element sets describe the orbits of various satellites in use by the amateur radio community. For details see: www.amsat.org/keplerian-elements-formats/ A daily update of element sets is available at: www.amsat.org/tle/daily-bulletin.txt or without bulletin text: www.amsat.org/tle/dailytle.txt AO-07 1 07530U 74089B 26105.25129810 -.00000033 00000-0 84924-4 0 9993 2 07530 101.9943 117.8346 0011884 250.5815 121.1443 12.53697098352637 UO-11 1 14781U 84021B 26104.85657554 .00000919 00000-0 99434-4 0 9996 2 14781 97.8006 71.1670 0008612 42.2604 317.9276 14.90630907247692 AO-27 1 22825U 93061C 26105.13790632 .00000048 00000-0 35178-4 0 9993 2 22825 98.6917 172.5627 0007255 287.5093 72.5297 14.30925061697986 FO-29 1 24278U 96046B 26105.09564720 -.00000019 00000-0 19624-4 0 9992 2 24278 98.5320 322.5804 0348811 260.1413 96.0187 13.53271161464632 GO-32 1 25397U 98043D 26105.26687640 .00000027 00000-0 32050-4 0 9996 2 25397 99.0058 96.4452 0002130 60.9281 299.2110 14.24415797442379 ISS 1 25544U 98067A 26105.23148970 .00005508 00000-0 10834-3 0 9995 2 25544 51.6321 251.6702 0006571 314.4960 45.5491 15.48920688561998 NO-44 1 26931U 01043C 26105.22806422 .00000044 00000-0 47421-4 0 9999 2 26931 67.0517 47.1089 0006670 264.3283 95.7058 14.31931118281439 SO-50 1 27607U 02058C 26105.03562669 .00000465 00000-0 73069-4 0 9992 2 27607 64.5525 324.3546 0075538 273.9658 85.2815 14.82908260255096 CO-55 1 27844U 03031E 26105.30486740 .00000188 00000-0 10046-3 0 9999 2 27844 98.6765 114.6504 0009804 15.6729 344.4752 14.24296041182722 RS-22 1 27939U 03042A 26105.33828970 .00000156 00000-0 32363-4 0 9996 2 27939 98.3465 287.9264 0012507 106.2903 14.3827 14.73352008206298 CO-65 1 32785U 08021C 26105.19331362 .00002274 00000-0 14860-3 0 9995 2 32785 97.8246 85.3463 0007314 236.5641 123.4888 15.08856520975694 CO-66 1 32791U 08021J 26104.96003677 .00010013 00000-0 34093-3 0 9991 2 32791 97.7522 99.9508 0004172 137.7565 222.3997 15.30612754977612 RS-30 1 32953U 08025A 26105.24505329 -.00000012 00000-0 -15925-3 0 9991 2 32953 82.5064 34.5841 0020600 87.8427 272.5012 12.43177498811878 SRMSAT 1 37841U 11058D 26105.32212333 .00000357 00000-0 49632-4 0 9994 2 37841 19.9719 79.9733 0011633 231.5218 270.0727 14.11560384748923 ZACUBE-1 1 39417U 13066B 26105.14074036 .00002321 00000-0 18451-3 0 9999 2 39417 97.8128 67.1430 0044948 102.3314 258.2946 15.00668356671274 Delfi-N3xt 1 39428U 13066N 26105.25019414 .00004193 00000-0 37384-3 0 9997 2 39428 97.8345 25.6570 0077261 56.8937 303.9668 14.94258558665227 GOMX-1 1 39430U 13066Q 26105.26164931 .00000795 00000-0 12715-3 0 9991 2 39430 97.6540 309.6838 0127605 279.8262 78.8557 14.69232759660679 LO-74 1 39440U 13066AA 26105.28673535 .00001487 00000-0 14337-3 0 9990 2 39440 97.8863 54.0410 0056583 235.1258 124.4634 14.93336749667608 AO-73 1 39444U 13066AE 26105.19635544 .00004844 00000-0 30893-3 0 9997 2 39444 97.8231 75.3867 0038546 59.6690 300.8342 15.08586678670167 DTUSAT-2 1 40030U 14033W 26104.94680633 .00004223 00000-0 23529-3 0 9995 2 40030 98.0865 98.7057 0009871 91.7149 268.5212 15.14175908643119 LILACSAT-2 1 40908U 15049K 26105.21422056 .00009311 00000-0 17126-3 0 9990 2 40908 97.4746 139.7311 0008854 116.9511 243.2645 15.49393382585993 Horyu-4 1 41340U 16012D 26104.58874023 .00078460 00000-0 60057-3 0 9998 2 41340 30.9890 175.5144 0006087 132.2381 227.8791 15.70725256560749 Lapan A3 1 41603U 16040E 26105.26273889 .00002378 00000-0 77629-4 0 9999 2 41603 97.1494 103.4989 0008691 235.4609 124.5814 15.32694987545178 CAS-2T 1 41847U 16066G 26105.14064133 .00000339 00000-0 57686-4 0 9990 2 41847 98.3839 181.5860 0341446 321.0198 36.6820 14.44554628495692 TechnoSat 1 42829U 17042E 26105.27580578 .00001146 00000-0 85717-4 0 9999 2 42829 97.4196 265.3711 0016736 311.5886 48.3905 15.04567865477243 AO-91 1 43017U 17073E 26105.14449358 .00003618 00000-0 16363-3 0 9995 2 43017 97.4800 333.6776 0153450 185.5154 174.4394 15.11595040455868 S-Net D 1 43186U 18014G 26105.17837757 .00002289 00000-0 12235-3 0 9992 2 43186 97.5410 10.3770 0006852 229.1346 130.9294 15.16084396449217 S-Net B 1 43187U 18014H 26105.25460807 .00002324 00000-0 12428-3 0 9994 2 43187 97.5416 10.4374 0007617 223.9543 136.1085 15.16056007449221 S-Net A 1 43188U 18014J 26104.64954549 .00002263 00000-0 12102-3 0 9999 2 43188 97.5426 10.0333 0007400 227.0650 132.9963 15.16088987449139 S-Net C 1 43189U 18014K 26105.25813424 .00002335 00000-0 12487-3 0 9990 2 43189 97.5443 10.7031 0009033 217.5939 142.4663 15.16047836447778 Ten-Koh 1 43677U 18084G 26105.06886648 .00001969 00000-0 15254-3 0 9993 2 43677 98.0790 294.7778 0009054 333.7048 26.3715 15.02671024406688 PO-101 1 43678U 18084H 26105.27671802 .00001365 00000-0 11438-3 0 9991 2 43678 98.1051 298.8200 0013843 20.3896 339.7876 15.00147602406784 QO-100 1 43700U 18090A 26105.23517045 .00000150 00000-0 00000-0 0 9999 2 43700 0.0129 248.3005 0001164 156.6279 268.9168 1.00272134 27041 MinXSS-2 1 43758U 18099A 26105.19481550 .00015525 00000-0 35459-3 0 9998 2 43758 97.4573 179.8279 0009260 133.1240 227.0784 15.42908715404402 AO-95 1 43770U 18099N 26105.12790904 .00006229 00000-0 24960-3 0 9997 2 43770 97.4442 165.6568 0008627 199.8929 160.1974 15.25361517403607 SNUSat 2 1 43782U 18099AA 26105.12479148 .00004371 00000-0 20070-3 0 9998 2 43782 97.4124 159.5044 0011503 150.2616 209.9276 15.20867848403441 SnugLite 1 43784U 18099AC 26105.08171239 .00006544 00000-0 25869-3 0 9990 2 43784 97.3936 160.0297 0004212 135.3588 224.7990 15.25812361403691 ITASat 1 1 43786U 18099AE 26105.09604103 .00003955 00000-0 19608-3 0 9991 2 43786 97.4097 157.8855 0012213 205.5642 154.4990 15.18251046403336 EAGLET 1 1 43790U 18099AJ 26105.07851435 .00002532 00000-0 14908-3 0 9994 2 43790 97.4298 156.4210 0010878 195.8447 164.2445 15.12459924402795 ESEO 1 43792U 18099AL 26104.98171852 .00001278 00000-0 96410-4 0 9998 2 43792 97.4047 145.0633 0012108 181.8426 178.2758 15.04057663402306 JO-97 1 43803U 18099AX 26105.15639124 .00007406 00000-0 24449-3 0 9993 2 43803 97.4191 167.8537 0007325 130.0634 230.1251 15.31678214403977 Suomi 100 1 43804U 18099AY 26105.12873194 .00006414 00000-0 24435-3 0 9991 2 43804 97.4247 165.8089 0011537 138.4781 221.7336 15.27007813403791 ISAT 1 43879U 18111D 26105.24424471 .00034369 00000-0 49358-3 0 9992 2 43879 97.5910 36.1258 0007641 138.6021 221.5813 15.56010138401353 UWE-4 1 43880U 18111E 26105.22764319 .00015015 00000-0 34876-3 0 9996 2 43880 97.5859 30.9123 0008350 172.1349 188.0030 15.42425492401068 Sparrow 1 43881U 18111F 26105.09555307 .00061155 00000-0 72562-3 0 9997 2 43881 97.6119 40.7112 0005043 145.4241 214.7345 15.60997537401493 Prox-1 1 44339U 19036A 26105.30011741 .00006179 00000-0 60996-3 0 9999 2 44339 23.9946 173.8284 0006547 32.5641 327.5261 14.89121609364082 Taurus 1 1 44530U 19059C 26105.28677655 .00003439 00000-0 56411-3 0 9999 2 44530 98.6353 266.2657 0009728 145.7770 214.4064 14.71394015349397 TO-108 1 44881U 19093C 26105.23976016 .00000919 00000-0 11005-3 0 9994 2 44881 97.7562 179.0026 0012216 297.8790 62.1188 14.86420640342068 RS-44 1 44909U 19096E 26105.22579763 .00000001 00000-0 -33620-4 0 9996 2 44909 82.5263 21.5408 0216459 291.7508 66.0681 12.79747873294291 SALSAT 1 46495U 20068K 26105.26708578 .00004087 00000-0 14851-3 0 9992 2 46495 97.8862 104.5486 0010710 153.9105 206.2675 15.28870140305744 CSS (TIANHE-1) 1 48274U 21035A 26105.10565112 .00018051 00000-0 20098-3 0 9998 2 48274 41.4685 346.2837 0005650 210.9621 149.0886 15.62404897283303 CUTE 1 49263U 21088D 26105.20910797 .00045880 00000-0 33853-3 0 9992 2 49263 97.4200 199.6063 0003194 196.5190 163.5970 15.72885487252601 TeikyoSat 4 1 49396U 21102B 26105.07521602 .00000964 00000-0 64216-4 0 9996 2 49396 97.3735 137.0029 0013048 144.3696 215.8407 15.09283740243205 Z-Sat 1 49399U 21102E 26105.24678750 .00002254 00000-0 11436-3 0 9994 2 49399 97.3397 142.4820 0018452 105.7055 254.6216 15.17780671243893 KOSEN 1 1 49402U 21102H 26105.07633740 .00004456 00000-0 17573-3 0 9994 2 49402 97.3262 148.4788 0015546 74.1790 286.1162 15.25967127244392 HO-113 1 50466U 21131B 26105.29828292 .00000292 00000-0 10409-3 0 9995 2 50466 98.4948 198.0406 0002907 293.8533 66.2351 14.41296326226050 SNUGLITE 2 1 52899U 22065F 26105.16431070 .00000563 00000-0 11605-3 0 9994 2 52899 98.2105 250.1425 0006820 213.1116 146.9661 14.64225991201773 UmKA 1 (RS40S) 1 57172U 23091G 26105.24335337 .00003028 00000-0 14313-3 0 9999 2 57172 97.5110 164.1988 0012224 346.3856 13.7047 15.20118859154440 CubeBel-2 (EU11S) 1 57175U 23091K 26105.26701902 .00006443 00000-0 24054-3 0 9996 2 57175 97.5109 167.9784 0009213 345.6848 14.4128 15.27707141154693 RS-38S 1 57189U 23091Z 26105.24061458 .00007590 00000-0 23250-3 0 9995 2 57189 97.5137 173.5501 0005972 296.7114 63.3517 15.34086149155039 SONATE-2 1 59112U 24043Q 26105.13206569 .00020535 00000-0 31485-3 0 9996 2 59112 97.5454 251.9137 0007330 78.4447 281.7629 15.54322884118084 GRBBeta 1 60237U 24128C 26105.22563892 .00001810 00000-0 13496-3 0 9992 2 60237 61.9889 77.0782 0048054 121.3881 239.1926 15.06135976 96782 Curium One 1 60242U 24128H 26105.27767049 .00003706 00000-0 22521-3 0 9998 2 60242 61.9783 68.4131 0047695 117.6803 242.9144 15.11513315 96940 ROBUSTA-3A 1 60243U 24128J 26105.27429826 .00003505 00000-0 21830-3 0 9996 2 60243 61.9858 70.5552 0048754 115.1431 245.4733 15.10697032 96919 CatSat 1 60246U 24125J 26105.15056597 .00023639 00000-0 38325-3 0 9991 2 60246 97.2167 317.1265 0025486 59.0489 301.3264 15.52388947 97598 HYPERVIEW-1G (RS66S) 1 61772U 24199AP 26105.23777646 .00042116 00000-0 45342-3 0 9999 2 61772 97.3010 342.3951 0009247 136.9581 223.2402 15.63556132124804 AO-123 1 61781U 24199AY 26105.26588462 .00004056 00000-0 12241-3 0 9991 2 61781 97.3096 334.5159 0014446 167.7616 192.3981 15.34752980124275 JINJUSat 1B 1 63210U 25052A 26105.26674430 .00007749 00000-0 25667-3 0 9998 2 63210 97.4080 2.0103 0002116 347.8587 12.2603 15.31578309 60462 NUSHSAT 1 1 63211U 25052B 26105.14055415 .00009379 00000-0 29131-3 0 9993 2 63211 97.4057 2.2560 0002127 359.1545 0.9693 15.33578658 60471 TEVEL2-4 1 63213U 25052D 26105.21281149 .00008332 00000-0 26838-3 0 9997 2 63213 97.3979 1.5836 0002452 25.6004 334.5359 15.32451210 60466 TEVEL2-5 1 63214U 25052E 26105.22689472 .00008010 00000-0 25923-3 0 9997 2 63214 97.3977 1.5625 0002443 26.3537 333.7829 15.32310219 60466 TEVEL2-6 1 63215U 25052F 26104.64993692 .00009505 00000-0 30758-3 0 9997 2 63215 97.3983 0.9713 0002594 25.1375 334.9993 15.32260434 60377 TEVEL2-1 1 63217U 25052H 26104.46254423 .00009315 00000-0 30586-3 0 9999 2 63217 97.3953 0.4796 0003177 34.6991 325.4457 15.31794864 60333 TEVEL2-3 1 63218U 25052J 26104.98179181 .00009885 00000-0 32386-3 0 9996 2 63218 97.3956 1.0128 0003164 33.5761 326.5681 15.31848218 60415 TEVEL2-2 1 63219U 25052K 26105.18169295 .00008432 00000-0 27699-3 0 9993 2 63219 97.3957 1.1988 0003134 32.7916 327.3520 15.31812420 60442 TEVEL2-9 1 63237U 25052AD 26105.27756536 .00007426 00000-0 25818-3 0 9996 2 63237 97.4014 0.7969 0006805 24.1546 336.0012 15.30000024 60400 TEVEL2-7 1 63238U 25052AE 26104.98035611 .00009103 00000-0 31825-3 0 9997 2 63238 97.4020 0.4413 0006956 24.8941 335.2633 15.29749027 60357 TEVEL2-8 1 63239U 25052AF 26104.98787625 .00009077 00000-0 31755-3 0 9999 2 63239 97.4017 0.4279 0006982 25.9750 334.1839 15.29728552 60359 HYDRA-W 1 63490U 25052BL 26104.62284422 .00525064 10849-3 16841-2 0 9998 2 63490 97.3777 8.0138 0005913 140.9563 219.2139 15.90955667 60848 HADES-ICM (SO-125) 1 63492U 25052BN 26104.47883696 .00158505 00000-0 12433-2 0 9991 2 63492 97.3893 6.5635 0003945 81.3378 278.8331 15.71060930 60731 SPIRONE 1 66657U 25274H 26105.27282413 .00001317 00000-0 13108-3 0 9991 2 66657 97.7463 35.4844 0011048 218.0142 142.0299 14.93287369 20830 K-HERO 1 66660U 25274L 26105.22835561 .00001277 00000-0 12583-3 0 9999 2 66660 97.7468 35.5544 0012797 223.8679 136.1525 14.93725369 20831 SNUGLITE-III DURI 1 66661U 25274M 26105.08440846 .00001393 00000-0 13656-3 0 9993 2 66661 97.7467 35.4303 0013426 225.5981 134.4141 14.93791680 20810 SilverSat 1 66909U 98067XV 26105.06953545 .00663705 20908-3 12552-2 0 9997 2 66909 51.6140 235.4536 0013604 318.9730 41.0255 15.99998535 20958 SAKHACUBE-CHOLBON 1 67290U 25313AU 26104.94257926 .00005478 00000-0 23070-3 0 9994 2 67290 97.3962 180.8181 0008954 209.7278 150.3451 15.23728430 16348 RS95S (QMR-KWT-2) 1 67291U 25313AV 26105.17522016 .00006376 00000-0 26088-3 0 9996 2 67291 97.3960 181.1154 0008876 207.4463 152.6307 15.24643126 16383 Ten-Koh2 1 68261U 25241B 26104.45231837 .00004846 00000-0 21669-3 0 9992 2 68261 51.6423 262.8255 0004999 292.4969 67.5478 15.23069381 5198 IO-86 1 40931U 25360.30710720 .00000000 00000-0 12800-3 0 00 2 40931 6.0006 332.5373 0012733 338.8432 8.1437 14.79075515 01 HADES-SA/SpinnyONE 1 71958C 26067D 26089.49758863 -.00009989 00000+0 -51655-3 0 00 2 71958 97.4320 49.1630 0007687 13.6276 327.6456 15.16316797 13 LILIUM-4 1 71922C 26067AC 26089.50133053 -.00014632 00000+0 -74472-3 0 04 2 71922 97.4497 49.1617 0004341 5.9603 355.7042 15.16896692 16 PARUS-6U1 1 71919C 26067Q 26089.49893470 -.00013781 00000+0 -70600-3 0 07 2 71919 97.4488 49.1589 0005235 359.3198 349.2677 15.16662579 15 JACK-002 1 71927C 26067C 26089.49750414 -.00013014 00000+0 -63498-3 0 02 2 71927 97.4500 49.1567 0002681 143.8886 196.8842 15.18377566 18 SAL-E 1 71904C 26067L 26089.49846595 -.00007742 00000+0 -39877-3 0 08 2 71904 97.4412 49.1602 0006442 8.2554 337.7892 15.16462720 16 DISCO-2 1 71908C 26067U 26089.49955160 -.00011726 00000+0 -58129-3 0 09 2 71908 97.4541 49.1588 0000289 282.0588 69.8834 15.17826845 10 /EX